Hourly Weather Roundup
Issued by NWS Central Illinois

Home | Current Version | Previous Version | Text Only | Print | Product List | Glossary On
Versions: 1 2 3 4 5 6 7 8 9 10 11 12 13 14 15 16 17 18 19 20 21 22 23 24 25 26 27 28 29 30 31 32 33 34 35 36 37 38 39 40 41 42 43 44 45 46 47 48 49 50
000
NZUS43 KILX 101010
HWRILX

AREA WEATHER ROUNDUP
NATIONAL WEATHER SERVICE, LINCOLN IL
400 AM CST SAT DEC 10 2016


CITY           SKY/WX    TMP DP  RH WIND       PRES   REMARKS
BLOOMINGTON    CLOUDY    21  15  78 W6        30.54S WCI  13
CHAMPAIGN      CLOUDY    22  15  75 W7        30.55S WCI  13
DANVILLE       CLOUDY    22  15  77 W6        30.52R WCI  14
DECATUR        CLOUDY    22  14  71 W3        30.56S
EFFINGHAM      CLOUDY    23  20  89 SW3       30.59R
FLORA          CLOUDY    24  19  82 SW3       30.59S
GALESBURG      CLOUDY    21  16  83 SW3       30.54S
JACKSONVILLE   CLOUDY    22  16  77 CALM      30.56F
LACON          CLOUDY    21  14  74 W6        30.55S WCI  13
LAWRENCEVILLE  CLOUDY    23  18  81 W3        30.58F
LITCHFIELD     CLOUDY    23  18  82 SW5       30.56S WCI  17
$$


CITY           SKY/WX    TMP DP  RH WIND       PRES   REMARKS
LINCOLN        CLOUDY    23  17  76 CALM      30.56F
MACOMB         CLOUDY    22  17  81 CALM      30.57F
MATTOON        CLOUDY    22  16  78 CALM      30.55S
MT CARMEL AP   CLOUDY    23  19  87 CALM      30.58S
OLNEY-NOBLE AP CLOUDY    23  21  93 CALM      30.59S
PARIS          CLOUDY    22  18  83 W5        30.56S WCI  16
PEORIA         CLOUDY    22  14  71 W3        30.56F
PONTIAC        CLOUDY    22  16  77 W8        30.55S WCI  13
RANTOUL        CLOUDY    24  18  78 W6        30.55S WCI  17
SPRINGFIELD    CLOUDY    24  17  74 NW5       30.57F WCI  18
TAYLORVILLE    CLOUDY    23  18  81 CALM      30.57S
$$

...REGIONAL REPORTS...


CITY           SKY/WX    TMP DP  RH WIND       PRES   REMARKS
CHICAGO O`HARE CLOUDY    19  12  74 W10       30.49F WCI   7
KANKAKEE       CLOUDY    23  16  74 CALM      30.54S
MOLINE         CLOUDY    21  14  74 SW3       30.54F
MOUNT STERLING CLOUDY    22  15  76 CALM      30.54F
MOUNT VERNON   NOT AVBL
PITTSFIELD     CLOUDY    24  18  77 CALM      30.56F
QUINCY         CLOUDY    23  15  71 CALM      30.54F
ROCKFORD       FLURRIES  18  13  80 W7        30.52S WCI   9
$$


CITY           SKY/WX    TMP DP  RH WIND       PRES   REMARKS
BURLINGTON     CLOUDY    22  16  78 CALM      30.53F
CEDAR RAPIDS   CLOUDY    16  14  92 CALM      30.50F
DES MOINES     CLOUDY    23  12  62 CALM      30.49F
KIRKSVILLE     CLOUDY    24  16  71 SE3       30.52F
OTTUMWA        CLOUDY    22  15  75 CALM      30.51F
ST LOUIS       CLOUDY    27  14  58 CALM      30.57F
$$


CITY           SKY/WX    TMP DP  RH WIND       PRES   REMARKS
TERRE HAUTE    CLOUDY    23  15  71 CALM      30.56S
EVANSVILLE     CLOUDY    20  16  84 CALM      30.60S
INDIANAPOLIS   CLOUDY    22  15  75 W6        30.52S WCI  14
LAFAYETTE      CLOUDY    22  17  81 W7        30.54R WCI  13
MADISON        FLURRIES  16  11  80 W6        30.47S WCI   7
MILWAUKEE      MOCLDY    20  12  71 W9        30.47R WCI   9
$$






USA.gov is the U.S. government's official web portal to all federal, state and local government web resources and services.